Tracking 18843 objects as of 20-November-2017
HD Live streaming from Space Station
objects crossing your sky now

SATCOM C3

Track SATCOM C3 now!
SATCOM C3 is classified as:


NORAD ID: 22117
Int'l Code: 1992-060B
Perigee: 36,623.8 km
Apogee: 36,842.4 km
Inclination: 10.4 °
Period: 1,484.4 minutes
Semi major axis: 43104 km
RCS: 6.9709 m2 (large)
Launch date: September 10, 1992
Source: United States (US)
Launch site: FRENCH GUIANA (FRGUI)
aabbcc
Your satellite tracking list
Your tracking list is empty




NASA's NSSDC Master Catalog

Two Line Element Set (TLE):
1 22117U 92060B   17323.95184932 -.00000145  00000-0  00000+0 0  9997
2 22117  10.3830  40.7217 0025364 292.2135  68.4894  0.97011944 91380
Source of the keplerian elements: AFSPC